{"data":{"norad_id":67508,"intl_designator":"2026-012R","name":"STARLINK-36526","alt_names":[],"object_type":"PAYLOAD","status":"ACTIVE","operator":null,"country":"US","launch_date":"2026-01-18","launch_site_code":"AFETR","launch_vehicle":null,"mission":null,"orbit_class":"UNKNOWN","rcs_meters":null,"size_class":null,"mass_kg":null,"dimensions":null,"purposes":["comms"],"wikipedia_slug":null,"has_3d_model":false,"image_url":null,"decayed_at":null,"tle_current":{"epoch":"2026-05-24T23:22:11.809056Z","epoch_age_seconds":84127,"freshness":"FRESH","line1":"1 67508U 26012R   26144.97374779  .00021752  00000+0  79735-3 0  9997","line2":"2 67508  43.0021 243.1383 0002290 267.0449  93.0141 15.27591148 19435","mean_motion":15.27591148,"eccentricity":0.000229,"inclination_deg":43.0021,"raan_deg":243.1383,"arg_perigee_deg":267.0449,"mean_anomaly_deg":93.0141,"bstar":0.00079735,"rev_number":1943,"period_min":94.266060777147,"perigee_km":481.44451114843,"apogee_km":484.58691909195,"semimajor_km":6861.1527151202,"source":"CELESTRAK","updated_at":"2026-05-25T13:38:21.569862Z"}}}